Weather in Nizhnyaya Yakushka

Russia / Ulyanovsk Oblast     54°12′47″N   49°47′41″E
temp.,
°C
wind,
m/s
gust,
m/s
humid.,
%
clouds,
%
prec.,
mm/h
press.,
hPa
HPBL,
m
23 april, fri
fri2301:00+4sse38915 0.0 1026210
04:00+3sse269712 0.0 1026145
07:00+4sse36905 0.0 1026198
10:00+10se346713 0.0 1026585
13:00+13ese445785 0.0 10241016
16:00+14e4551100 0.0 10221283
19:00+12e2466100 0.0 1021102
22:00+9e3674100 0.0 1020115
24 april, sat
sat2401:00+8se2385100 0.0 101874
04:00+7se2292100 0.0 101762
07:00+7e2496100 0.6 1015292
10:00+7ene2492100 1.7 1014296
13:00+8sse1188100 0.4 1013279
16:00+9se2280100 0.4 1011438
19:00+9ese3684100 0.0 1010296
22:00+8se4118598 0.0 1009398
25 april, sun
sun2501:00+8sse5128981 0.1 1006389
04:00+5w61190100 2.3 1006684
07:00+5sw51081100 0.1 10081043
10:00+8wsw7105956 0.4 10081548
13:00+8wsw8115693 0.9 10102014
16:00+7wsw8117173 1.4 10121361
19:00+6sw611735 0.2 1014867
22:00+5sw51374100 0.2 1016577
26 april, mon
mon2601:00+4sw512760 0.0 1016469
04:00+2sw411781 0.0 1018296
07:00+3ssw397418 0.0 1018251
10:00+9sw694874 0.0 10181118
13:00+11sw6837100 0.0 10171535
16:00+12sw573691 0.0 10161690
19:00+10sw2255100 0.0 101430
22:00+7sse1163100 0.0 101311
27 april, tue
tue2701:00+6se1165100 0.0 101110
04:00+5se116924 0.0 101010
07:00+6sse127099 0.0 100979
10:00+11ssw245152 0.0 1009978
13:00+13sw573989 0.0 10072299
16:00+11w786342 0.4 10081221
19:00+8wnw3762100 0.0 10091022
22:00+6ssw2369100 0.0 101144